Stations météo

Publicité
Cazaux, France (7502): Température de l'air & dewpoint: 09.11.2019 16:00:00 - 15.11.2019 16:00:00 (CET)Cazaux, France (7502): Température de l'air 5cm: 09.11.2019 16:00:00 - 15.11.2019 16:00:00 (CET)Cazaux, France (7502): Température de l'air -20cm & Température de l'air -100cm: 09.11.2019 16:00:00 - 15.11.2019 16:00:00 (CET)Cazaux, France (7502): Vitesse du vent & gusts: 09.11.2019 16:00:00 - 15.11.2019 16:00:00 (CET)Cazaux, France (7502): Direction du vent: 09.11.2019 16:00:00 - 15.11.2019 16:00:00 (CET)Cazaux, France (7502): reduced air pressure: 09.11.2019 16:00:00 - 15.11.2019 16:00:00 (CET)Cazaux, France (7502): visibility: 09.11.2019 16:00:00 - 15.11.2019 16:00:00 (CET)Cazaux, France (7502): Quantités de précipitations: 09.11.2019 16:00:00 - 15.11.2019 16:00:00 (CET)
Date & Time tt [°C] td [°C] tt 5cm [°C] tt -20cm [°C] tt -100cm [°C] ff [km/h] ff [knt] fx [km/h] fx [knt] dd ppp [hPa] vv [km] rr [mm]
15.11.2019 16:00:00 7,5 3,7 9,1 11,7 16,5 8 4 19 10 NNE 1002,7 58 0,0
15.11.2019 15:00:00 7,3 4,3 8,7 11,6 16,6 14 8 22 12 NNE 1002,2 60 0,0
15.11.2019 14:00:00 8,0 4,9 9,2 11,6 16,6 14 8 22 12 N 1001,8 60 0,0
15.11.2019 13:00:00 6,8 4,8 7,7 11,6 16,6 15 8 22 12 N 1001,4 57 0,0
15.11.2019 12:00:00 6,4 5,2 6,9 11,6 16,6 16 9 25 13 N 1001,3 43 0,0
15.11.2019 11:00:00 5,9 4,5 7,5 11,7 16,6 20 11 27 15 N 1000,6 43 0,0
15.11.2019 10:00:00 5,3 4,4 4,3 11,7 16,6 14 8 24 13 NNE 999,4 58 0,0
15.11.2019 09:00:00 4,5 3,8 4,0 11,8 16,6 9 5 30 16 E 998,5 33 2,0
15.11.2019 08:00:00 4,7 4,0 4,3 11,9 16,6 20 11 30 16 ENE 997,8 10 1,6
15.11.2019 07:00:00 5,2 4,5 4,8 12,0 16,6 19 11 28 15 E 997,3 18 3,7
15.11.2019 06:00:00 5,6 4,7 5,1 12,0 16,6 17 9 25 13 SE 997,5 8 2,2
15.11.2019 05:00:00 6,1 5,5 5,8 12,0 16,6 14 7 29 16 SE 997,1 7 3,2
15.11.2019 04:00:00 6,2 5,6 5,6 12,2 16,6 17 9 27 15 SSE 997,4 48 0,0
15.11.2019 03:00:00 6,1 5,8 3,7 12,2 16,6 13 7 19 11 SE 997,6 16 0,4
15.11.2019 02:00:00 3,9 3,9 0,2 12,3 16,7 12 7 17 9 SSE 998,1 20 0,0
15.11.2019 01:00:00 2,2 1,9 0,2 12,4 16,7 5 3 8 4 SSE 998,5 1,1 0,0
15.11.2019 00:00:00 3,3 3,0 0,0 12,4 16,7 3 1 6 3 ESE 998,1 6 0,0
14.11.2019 23:00:00 3,7 3,4 0,3 12,5 16,8 5 3 6 4 E 998,2 1,0 0,0
14.11.2019 22:00:00 4,4 4,1 1,5 12,5 16,7 4 2 11 6 SE 998,2 17 0,0
14.11.2019 21:00:00 3,3 2,6 0,8 12,6 16,8 8 5 13 7 ESE 997,9 16 0,0
14.11.2019 20:00:00 6,1 5,5 2,0 12,6 16,8 8 5 18 10 SSW 997,3 44 0,0
14.11.2019 19:00:00 6,0 5,0 4,3 12,6 16,8 0 0 17 9 N 997,6 34 0,0
14.11.2019 18:00:00 6,7 5,8 5,7 12,7 16,8 12 6 26 14 SSE 997,0 58 0,2
14.11.2019 17:00:00 6,8 6,1 6,4 12,7 16,8 14 8 26 14 SSE 996,7 16 0,8
14.11.2019 16:00:00 6,8 5,4 6,0 12,8 16,8 21 11 35 19 S 996,6 4,5 1,6
14.11.2019 15:00:00 6,4 5,3 5,5 12,8 16,8 8 4 32 17 ESE 996,7 9 4,1
14.11.2019 14:00:00 7,1 5,9 6,6 12,8 16,8 25 13 39 21 SSE 996,4 19 0,4
14.11.2019 13:00:00 7,3 5,9 6,6 12,8 16,8 27 15 51 27 SW 997,8 8 3,0
14.11.2019 12:00:00 7,1 5,9 6,9 12,8 16,8 27 15 50 27 S 998,0 8 0,4
14.11.2019 11:00:00 8,2 5,8 8,4 12,9 16,8 21 12 29 16 S 998,4 48 0,0
14.11.2019 10:00:00 9,1 5,5 7,5 12,9 16,8 18 10 27 15 SSW 998,9 58 0,0
14.11.2019 09:00:00 8,0 4,2 5,7 13,0 16,9 10 6 17 9 WSW 999,1 60 0,0
14.11.2019 08:00:00 6,9 4,4 5,7 13,0 16,8 12 6 56 31 W 999,6 60 0,8
14.11.2019 07:00:00 9,5 3,7 7,9 13,1 16,8 17 9 34 19 W 999,4 60 0,0
14.11.2019 06:00:00 9,2 4,8 7,3 13,1 16,9 16 8 27 15 WSW 999,4 53 0,0
14.11.2019 05:00:00 8,7 5,4 6,4 13,2 16,8 14 7 30 16 W 999,2 60 0,0
14.11.2019 04:00:00 7,9 4,8 6,4 13,2 16,8 19 10 51 28 W 999,8 18 1,6
14.11.2019 03:00:00 9,1 7,2 7,1 13,3 16,9 13 7 37 20 WSW 999,8 10 0,8
14.11.2019 02:00:00 9,1 6,0 7,5 13,3 16,9 24 13 55 30 W 1000,7 9 1,0
14.11.2019 01:00:00 9,2 7,3 8,2 13,3 16,9 29 16 52 28 WNW 1001,1 10 2,0
14.11.2019 00:00:00 10,5 9,3 9,6 13,3 16,8 20 11 56 30 W 1000,0 11 4,3
13.11.2019 23:00:00 11,3 9,6 10,3 13,4 16,8 29 16 61 33 WSW 1000,6 3,4 4,0
13.11.2019 22:00:00 11,9 10,5 10,4 13,3 16,8 29 16 56 30 SSW 1002,2 9 2,9
13.11.2019 21:00:00 11,8 9,2 10,5 13,4 16,9 23 12 40 22 SSW 1003,8 15 0,0
13.11.2019 20:00:00 12,2 7,9 11,0 13,3 16,9 24 13 41 22 SW 1005,8 59 0,0
13.11.2019 19:00:00 12,2 6,0 10,4 13,3 16,8 14 8 37 20 WSW 1006,8 60 0,0
13.11.2019 18:00:00 11,5 6,0 10,1 13,2 16,8 14 7 31 17 WSW 1008,1 60 0,0
13.11.2019 17:00:00 10,4 7,8 10,1 13,2 16,9 18 10 29 16 S 1008,7 46 0,0
13.11.2019 16:00:00 12,0 8,5 9,7 13,1 16,9 18 10 26 14 SSW 1009,7 20 0,2
13.11.2019 15:00:00 10,1 7,5 9,3 13,0 16,9 2 1 15 8 WSW 1010,4 16 0,2
13.11.2019 14:00:00 10,7 6,6 9,3 13,0 16,9 10 6 23 13 WSW 1010,8 9 0,0
13.11.2019 13:00:00 12,0 4,0 14,5 13,0 16,9 8 5 15 8 SSW 1011,1 53 0,0
13.11.2019 12:00:00 11,5 6,2 11,7 13,0 16,9 9 5 13 7 SSW 1011,7 49 0,0
13.11.2019 11:00:00 9,8 6,7 9,8 13,0 16,9 0 0 8 5 N 1011,5 48 0,0
13.11.2019 10:00:00 8,4 7,2 7,4 13,0 16,9 6 4 12 7 N 1011,0 32 0,0
13.11.2019 09:00:00 7,1 6,5 5,7 13,1 16,9 8 4 13 7 N 1010,2 43 0,0
13.11.2019 08:00:00 7,0 6,3 6,2 13,2 16,9 9 5 12 6 NNE 1009,5 45 0,0
13.11.2019 07:00:00 7,5 7,2 5,2 13,2 16,9 8 5 11 6 N 1008,4 20 0,0
13.11.2019 06:00:00 7,3 7,0 5,5 13,2 16,9 7 4 9 5 N 1008,1 19 0,0
13.11.2019 05:00:00 8,4 8,3 7,2 13,2 17,0 5 3 10 5 N 1007,4 20 0,0
13.11.2019 04:00:00 8,4 8,1 7,6 13,2 16,9 6 3 11 6 N 1007,1 18 0,0
13.11.2019 03:00:00 8,7 8,6 8,0 13,2 16,9 4 2 11 6 NNE 1006,8 20 0,0
13.11.2019 02:00:00 8,7 8,4 8,3 13,3 16,9 7 4 10 6 ENE 1006,6 14 0,0
13.11.2019 01:00:00 8,9 8,6 8,7 13,3 17,0 7 4 10 6 N 1006,7 8 0,2
13.11.2019 00:00:00 8,9 8,8 7,4 13,3 17,0 7 4 11 6 N 1006,9 9 0,0
12.11.2019 23:00:00 8,8 8,3 7,2 13,3 17,0 5 3 6 4 E 1007,2 17 0,0
12.11.2019 22:00:00 9,5 9,0 8,7 13,3 17,0 2 1 6 3 E 1007,6 29 0,0
12.11.2019 21:00:00 10,1 9,8 7,5 13,3 17,0 2 1 22 12 N 1008,0 34 0,0
12.11.2019 20:00:00 9,6 9,5 5,8 13,3 17,0 3 2 8 5 S 1008,0 0,9 0,0
12.11.2019 19:00:00 9,5 8,4 5,7 13,2 17,0 0 0 5 3 N 1008,4 0,8 0,0
12.11.2019 18:00:00 11,1 9,8 9,8 13,2 17,0 4 2 16 9 NNW 1008,7 43 1,6
12.11.2019 17:00:00 12,6 10,0 12,3 13,1 17,0 11 6 29 15 NNW 1009,2 42 0,0
12.11.2019 16:00:00 13,5 8,8 13,4 12,9 17,0 9 5 25 14 W 1009,7 18 0,0
12.11.2019 15:00:00 13,7 8,1 13,6 12,9 17,0 18 10 39 21 WNW 1010,3 36 0,0
12.11.2019 14:00:00 14,0 9,0 10,9 12,8 17,0 19 10 40 22 WNW 1010,7 43 0,4
12.11.2019 13:00:00 13,4 9,4 11,7 12,8 17,0 22 12 36 19 W 1011,3 15 0,2
12.11.2019 12:00:00 12,3 10,5 10,7 12,8 17,0 8 4 34 18 W 1012,3 57 0,2
12.11.2019 11:00:00 13,3 9,4 11,4 12,8 17,1 5 3 24 13 WSW 1012,7 50 0,0
12.11.2019 10:00:00 13,3 9,2 9,8 12,8 17,1 11 6 20 11 NW 1013,0 56 0,0
12.11.2019 09:00:00 10,7 8,5 9,1 12,9 17,1 7 4 27 15 W 1013,0 53 0,0
12.11.2019 08:00:00 10,7 8,3 9,1 12,9 17,1 18 10 48 26 WNW 1013,0 13 0,4
12.11.2019 07:00:00 11,5 6,8 9,0 12,9 17,1 8 4 27 15 WNW 1013,1 45 0,0
12.11.2019 06:00:00 11,3 7,2 8,4 13,0 17,1 11 6 21 11 W 1013,5 52 0,0
12.11.2019 05:00:00 10,9 6,8 6,5 13,0 17,1 11 6 21 11 W 1013,7 54 0,0
12.11.2019 04:00:00 9,9 6,2 6,8 13,0 17,1 6 3 27 15 WSW 1014,1 54 0,0
12.11.2019 03:00:00 11,8 6,9 9,5 13,1 17,1 14 8 27 15 WNW 1014,9 57 0,0
12.11.2019 02:00:00 11,1 6,2 9,3 13,1 17,1 11 6 24 13 W 1015,2 58 0,0
12.11.2019 01:00:00 11,0 7,5 8,1 13,1 17,1 10 6 23 13 W 1016,1 47 0,0
12.11.2019 00:00:00 10,1 6,1 6,9 13,2 17,2 6 4 13 7 W 1016,6 38 0,0
11.11.2019 23:00:00 9,8 6,7 6,0 13,2 17,2 8 4 14 8 W 1016,9 40 0,0
11.11.2019 22:00:00 8,8 6,6 6,1 13,2 17,2 4 2 11 6 WSW 1016,9 35 0,0
11.11.2019 21:00:00 9,5 7,4 7,4 13,2 17,2 7 4 32 17 WNW 1016,9 42 0,4
11.11.2019 20:00:00 9,3 7,9 7,6 13,2 17,2 8 4 49 27 WNW 1016,8 11 1,0
11.11.2019 19:00:00 11,8 4,5 9,1 13,1 17,2 20 11 37 20 NW 1016,1 50 0,0
11.11.2019 18:00:00 10,5 7,6 8,8 13,1 17,2 10 6 51 28 NW 1015,6 31 0,0
11.11.2019 17:00:00 12,3 6,3 11,3 13,0 17,2 22 12 50 27 NW 1014,4 36 0,0
11.11.2019 16:00:00 12,4 5,5 11,7 13,0 17,3 21 12 48 26 NNW 1013,6 40 0,0
11.11.2019 15:00:00 11,3 8,9 10,7 13,0 17,3 16 9 68 37 N 1012,8 20 0,0
11.11.2019 14:00:00 12,1 8,9 11,3 12,9 17,3 32 17 75 41 NNW 1010,5 20 1,2
11.11.2019 13:00:00 11,4 11,1 11,1 12,9 17,3 17 9 27 15 S 1010,9 3,2 2,0
11.11.2019 12:00:00 10,9 10,6 10,7 12,9 17,3 16 9 24 13 S 1012,2 3,9 1,2
11.11.2019 11:00:00 10,6 10,1 10,1 12,9 17,3 15 8 22 12 S 1012,8 3,9 0,4
11.11.2019 10:00:00 10,6 9,8 9,2 12,9 17,3 12 7 22 12 S 1012,9 16 0,0
11.11.2019 09:00:00 8,5 7,9 7,3 13,0 17,3 9 5 16 9 S 1013,2 23 0,0
11.11.2019 08:00:00 7,5 7,1 7,1 13,0 17,3 6 4 11 6 S 1013,4 27 0,0
11.11.2019 07:00:00 7,5 6,9 7,2 13,0 17,3 3 2 18 10 ESE 1013,4 25 0,0
11.11.2019 06:00:00 8,0 7,2 7,7 13,0 17,3 15 8 23 12 SSE 1014,0 29 0,0
11.11.2019 05:00:00 8,2 7,6 7,5 13,0 17,3 12 7 17 9 S 1014,4 32 0,0
11.11.2019 04:00:00 8,7 8,1 7,5 13,1 17,4 11 6 18 10 S 1015,0 25 0,0
11.11.2019 03:00:00 8,9 8,3 7,4 13,1 17,4 12 7 20 11 SSW 1015,5 27 0,0
11.11.2019 02:00:00 7,8 7,5 5,1 13,2 17,4 13 7 17 9 S 1015,8 9 0,2
11.11.2019 01:00:00 6,8 6,4 5,2 13,2 17,4 9 5 19 10 S 1016,3 20 0,0
11.11.2019 00:00:00 8,4 8,0 4,1 13,3 17,4 11 6 20 11 S 1016,0 19 0,2
10.11.2019 23:00:00 6,4 5,5 3,6 13,3 17,4 8 4 11 6 S 1016,3 30 0,0
10.11.2019 22:00:00 7,2 6,5 4,1 13,4 17,4 8 4 16 9 S 1016,0 37 0,0
10.11.2019 21:00:00 6,1 5,2 4,1 13,3 17,4 8 4 13 7 SSE 1015,8 35 0,0
10.11.2019 20:00:00 6,1 4,6 3,7 13,3 17,4 5 3 11 6 S 1016,0 58 0,0
10.11.2019 19:00:00 8,9 5,6 5,8 13,3 17,5 3 1 19 10 WNW 1015,5 54 0,0
10.11.2019 18:00:00 9,1 6,2 6,4 13,2 17,5 8 4 14 7 SW 1015,3 60 0,0
10.11.2019 17:00:00 10,7 5,9 11,7 13,2 17,5 9 5 20 11 SW 1014,7 56 0,0
10.11.2019 16:00:00 11,2 5,7 12,0 13,2 17,5 10 5 15 8 SW 1014,2 57 0,0
10.11.2019 15:00:00 10,7 5,9 10,7 13,1 17,5 7 4 12 7 SSW 1013,8 60 0,0
10.11.2019 14:00:00 10,5 5,0 12,4 13,1 17,5 7 4 16 9 S 1014,0 60 0,0
10.11.2019 13:00:00 9,8 6,1 9,4 13,1 17,5 11 6 18 10 SSE 1013,8 60 0,0
10.11.2019 12:00:00 8,8 6,8 7,4 13,2 17,6 13 7 19 10 E 1014,2 18 1,0
10.11.2019 11:00:00 8,1 6,7 6,5 13,2 17,6 11 6 22 12 ESE 1013,8 19 0,4
10.11.2019 10:00:00 6,8 5,9 6,4 13,3 17,6 17 9 26 14 E 1013,1 8 1,2
10.11.2019 09:00:00 6,5 5,8 6,1 13,3 17,6 13 7 18 10 E 1012,5 54 0,0
10.11.2019 08:00:00 7,7 6,0 5,9 13,4 17,6 9 5 54 29 NNW 1012,3 15 2,4
10.11.2019 07:00:00 8,0 5,1 5,2 13,4 17,6 3 2 68 37 NNW 1011,7 60 1,4
10.11.2019 06:00:00 9,0 5,2 5,1 13,4 17,6 13 7 27 15 NNW 1011,7 19 0,2
10.11.2019 05:00:00 7,6 5,4 5,7 13,5 17,6 5 3 17 9 WSW 1011,9 59 0,2
10.11.2019 04:00:00 8,7 6,3 6,1 13,5 17,7 21 11 36 20 WNW 1012,6 16 0,4
10.11.2019 03:00:00 8,8 4,4 6,6 13,5 17,7 32 18 72 39 NNW 1012,2 13 0,2
10.11.2019 02:00:00 11,8 4,7 9,8 13,6 17,7 20 11 53 28 NW 1012,2 33 0,0
10.11.2019 01:00:00 11,6 4,1 9,7 13,6 17,7 26 14 53 28 NW 1011,9 55 0,0
10.11.2019 00:00:00 11,4 4,4 7,9 13,6 17,7 26 14 47 26 NW 1011,8 57 0,0
09.11.2019 23:00:00 9,6 5,9 7,6 13,6 17,7 23 12 69 37 WNW 1011,8 15 0,2
09.11.2019 22:00:00 11,5 4,0 9,9 13,6 17,8 32 18 57 31 NW 1011,3 49 0,0
09.11.2019 21:00:00 12,2 4,4 10,5 13,6 17,8 30 16 57 31 NW 1010,2 46 0,0
09.11.2019 20:00:00 12,4 6,4 10,4 13,6 17,8 29 16 57 31 NW 1009,5 35 0,0
09.11.2019 19:00:00 12,7 8,2 10,6 13,6 17,8 32 17 61 33 WNW 1009,5 28 0,2
09.11.2019 18:00:00 12,7 9,5 11,0 13,5 17,8 29 16 52 28 WNW 1008,6 20 1,4
09.11.2019 17:00:00 11,9 11,3 10,9 13,5 17,8 29 16 50 27 SW 1008,7 3,3 1,0
09.11.2019 16:00:00 11,6 9,8 10,6 13,4 17,8 29 16 48 26 SSW 1009,6 16 0,6

tt = Température de l'air
td = dewpoint
tt 5cm = Température de l'air 5cm
tt -20cm = Température de l'air -20cm
tt -100cm = Température de l'air -100cm
ff = Vitesse du vent
fx = gusts
dd = Direction du vent
ppp = reduced air pressure
vv = visibility
rr = Quantités de précipitations

stations d'obs. à proximité